Temperature
14 14 14 14 14 15 15 15 15 14 14 14 14 14 14 14 14 14 14 14 14 14 14 14 14 14 13 13 13 13 13 13 13 13 12 12 12 12 12 12 12 11 11
14 14 14 14 14 14 14 14 14 14 14 14 14 14 14 14 14 14 14 14 14 14 14 14 14 14 13 13 13 13 13 13 13 13 13 12 12 12 12 12 12 11 11
14 14 14 14 14 14 14 14 14 14 14 13 13 14 14 14 13 14 14 13 14 14 14 14 14 14 13 13 13 13 13 13 13 13 13 13 12 12 12 12 12 12 11
13 14 14 14 14 14 14 13 14 14 13 13 13 13 14 13 13 13 13 13 13 14 14 14 14 14 14 13 13 13 13 13 13 13 13 13 12 12 12 12 12 11 11
13 13 13 13 13 13 13 13 13 13 13 13 13 13 13 13 13 13 13 13 13 13 14 14 14 14 14 13 13 13 13 13 13 13 13 13 12 12 12 12 12 11 11
13 13 13 13 13 13 13 13 13 13 13 13 13 13 13 13 13 13 13 13 13 13 13 13 14 14 13 13 13 13 13 13 13 13 13 13 13 12 12 12 12 11 11
12 12 12 13 13 13 13 13 13 13 12 12 12 12 12 12 12 12 13 13 13 13 13 13 13 13 13 13 13 13 13 13 13 13 13 13 13 12 12 12 12 11 11
11 12 12 12 12 12 12 12 12 12 12 12 12 11 11 12 12 12 12 13 13 13 13 13 13 13 13 13 13 13 13 13 13 13 13 13 13 12 12 12 11 11 11
11 11 11 11 11 12 12 12 12 11 11 12 11 11 11 11 12 12 12 13 13 13 13 13 13 13 13 13 13 13 13 13 13 13 13 13 12 12 12 12 11 11 11
10 11 11 11 11 11 11 11 11 11 11 11 11 11 11 12 12 12 12 13 13 12 12 13 13 13 13 13 13 13 13 13 13 13 12 12 12 12 11 11 11 11 10
9 10 10 10 10 10 11 10 11 11 10 10 11 11 11 11 11 11 11 12 12 12 12 12 12 12 12 12 13 13 13 13 12 12 12 12 12 11 11 11 11 10 10
9 9 9 9 9 10 10 10 10 10 10 10 10 10 10 10 11 11 11 11 11 12 12 12 12 12 12 12 12 12 12 12 12 12 12 11 11 11 11 11 10 10 10
8 8 8 8 9 9 9 9 9 9 9 9 10 10 10 10 10 10 10 10 10 11 11 11 11 11 11 11 11 12 12 12 12 12 11 11 11 11 11 10 10 10 10
7 7 7 8 8 8 8 8 8 9 9 9 9 9 9 9 9 9 9 9 9 10 10 10 11 11 11 11 11 11 11 11 11 11 11 11 11 11 10 10 10 10 9
6 7 7 7 7 7 7 7 8 8 8 8 8 8 8 8 8 9 9 9 9 9 9 9 10 10 10 10 10 11 11 11 11 11 11 10 10 11 10 10 10 9 9
6 6 6 6 6 6 7 7 7 7 7 7 7 7 7 8 8 8 8 8 8 8 8 9 9 9 9 9 9 10 10 10 10 10 10 10 10 10 10 10 9 9 9
5 5 5 5 5 6 6 6 6 6 6 6 6 6 6 7 7 7 7 7 7 7 7 8 8 8 8 9 9 9 9 9 9 9 9 9 9 9 9 9 9 9 8
4 4 4 4 5 5 5 5 5 5 5 5 5 5 5 6 6 6 6 6 6 6 6 6 7 7 7 8 8 8 8 8 8 9 9 9 9 9 9 9 8 8 8
3 3 3 4 4 4 4 4 4 4 4 4 4 4 4 4 4 5 5 5 5 5 5 5 6 6 6 7 7 7 7 7 8 8 8 8 8 8 8 8 8 8 8
3 2 2 2 2 2 2 2 2 2 2 2 3 2 2 3 3 3 3 3 4 4 4 4 4 5 5 5 5 5 6 6 6 6 6 7 7 7 7 7 7 7 7
2 2 2 1 1 1 1 1 1 1 1 1 1 1 1 1 1 1 1 2 2 2 2 3 3 3 3 4 4 4 4 5 5 5 5 6 6 6 6 6 6 7 7
1 1 1 1 0 0 -0 -0 -0 -0 0 0 0 0 0 0 0 0 0 0 0 0 1 1 1 2 2 2 3 3 3 3 4 4 4 5 5 5 5 5 6 6 6
1 1 0 0 -0 -0 -1 -1 -1 -1 -1 -1 -1 -1 -1 -1 -1 -1 -1 -1 -1 -1 -1 -0 0 0 1 1 1 2 2 2 3 3 3 3 4 4 4 5 5 5 5
0 -0 -0 -1 -1 -1 -2 -2 -2 -2 -2 -2 -2 -2 -3 -2 -2 -3 -2 -2 -2 -1 -1 -1 -1 -0 -0 0 1 1 1 1 2 2 3 2 3 3 3 4 4 4 4
-1 -1 -1 -2 -2 -2 -2 -3 -3 -3 -3 -3 -3 -4 -4 -4 -4 -4 -4 -3 -3 -3 -2 -2 -2 -1 -1 -1 -0 0 0 0 0 1 2 2 2 2 2 3 3 3 3
-2 -2 -2 -2 -3 -3 -3 -4 -4 -4 -4 -4 -4 -4 -4 -5 -5 -5 -5 -4 -4 -4 -3 -3 -2 -2 -2 -1 -1 -1 -1 -1 -1 -0 1 1 1 1 1 2 2 2 3
Wind_Speed
5 4 4 6 8 10 9 8 9 10 10 11 12 12 11 12 10 9 12 19 18 15 14 14 13 13 13 12 12 11 10 10 9 8 7 6 5 4 3 2 1 1 1
4 5 5 5 7 9 10 9 8 8 7 6 8 9 9 10 11 10 13 17 19 18 16 15 15 15 15 14 14 13 12 11 11 10 9 8 7 6 5 4 3 2 1
5 5 5 5 6 9 9 7 7 6 6 6 7 7 6 6 7 8 11 14 16 19 19 18 17 16 16 15 15 14 14 13 12 12 11 10 9 8 7 5 4 4 3
6 4 4 5 5 6 5 6 6 6 6 5 4 5 5 5 6 7 9 12 14 15 18 20 19 18 17 17 16 15 14 14 14 13 12 11 10 9 8 7 6 5 4
6 4 4 4 4 4 4 6 5 5 5 5 5 5 5 5 5 5 6 9 12 14 15 19 22 21 19 18 17 17 15 15 15 15 14 13 11 10 9 8 7 6 5
3 3 3 5 5 5 5 5 6 5 4 5 5 5 5 5 5 6 7 7 9 13 15 15 16 18 21 20 19 18 17 16 16 16 15 14 13 12 11 9 8 7 6
2 2 3 4 4 5 6 6 5 6 5 4 3 3 5 6 7 7 6 6 7 10 13 14 14 14 15 20 21 20 19 18 17 17 16 16 15 14 13 11 10 9 7
2 2 3 3 4 4 5 6 5 5 5 5 4 3 3 5 7 9 7 7 8 6 8 13 14 14 14 14 18 21 21 20 19 18 18 17 17 16 14 13 12 10 9
3 3 3 2 3 3 4 5 6 7 6 6 6 5 4 6 4 5 9 9 8 7 7 8 11 14 15 15 15 19 22 21 20 19 19 19 18 17 16 15 14 13 11
4 4 4 3 2 2 3 4 5 5 5 6 6 7 5 3 4 4 5 8 10 9 9 7 9 12 15 15 16 18 22 22 21 21 20 20 19 19 18 16 15 14 13
5 6 5 3 3 2 2 2 3 3 4 5 5 5 7 6 5 4 4 4 6 7 7 7 7 8 13 15 14 17 20 21 22 22 21 21 20 20 19 18 17 16 15
5 6 6 4 4 3 3 2 3 4 4 5 5 5 5 5 5 6 7 5 5 5 7 6 7 7 9 12 14 17 19 21 22 22 22 22 21 20 20 19 18 17 16
5 6 6 4 4 4 4 3 3 3 4 5 6 6 6 7 4 5 6 6 5 4 5 6 7 7 8 11 13 17 18 21 21 22 22 22 21 20 19 19 19 18 17
5 6 6 5 5 5 5 4 3 4 3 4 5 6 6 6 5 5 5 6 6 6 6 6 5 7 7 10 13 15 15 19 20 22 22 22 20 18 17 18 20 19 17
6 7 7 6 6 6 5 5 4 4 4 3 4 5 6 5 5 5 5 6 8 9 9 7 5 6 6 8 11 12 13 17 20 21 21 21 19 17 17 17 18 18 17
7 7 8 8 7 7 7 6 5 5 5 5 4 5 5 4 5 4 5 5 6 8 8 6 6 4 6 6 11 12 14 16 19 20 20 19 18 18 18 17 18 18 18
7 8 8 8 8 9 8 7 7 7 7 6 6 5 6 5 5 4 4 4 5 6 9 6 4 4 6 7 6 9 12 12 14 18 19 18 18 18 18 18 19 19 19
8 8 7 8 8 8 8 9 9 8 7 7 7 7 7 6 6 5 5 5 5 5 6 8 5 4 6 7 8 8 8 10 11 16 18 18 18 18 19 19 20 19 19
7 7 7 7 8 8 8 8 8 8 8 7 7 7 7 7 7 6 6 6 5 5 4 6 6 4 4 4 5 6 7 7 7 12 15 17 18 18 19 19 20 20 20
6 6 7 7 7 7 7 8 8 8 8 7 7 7 7 7 7 7 7 7 6 6 5 6 6 4 5 5 5 6 6 5 5 5 10 12 15 17 18 19 19 20 20
7 6 6 6 6 6 7 9 8 9 8 8 8 7 7 8 10 8 7 7 7 6 6 6 6 5 5 5 6 5 6 4 4 4 5 6 7 8 11 16 18 20 20
6 6 6 6 7 7 11 13 11 7 8 8 8 8 8 8 10 13 14 12 10 9 8 7 7 7 7 6 5 5 5 4 4 4 5 6 6 8 8 10 16 20 21
6 6 6 6 7 8 13 14 14 8 7 7 8 8 8 9 11 8 11 13 12 14 13 10 9 9 8 7 7 7 7 7 6 5 5 6 6 8 7 12 18 21 21
5 5 6 6 6 9 13 14 15 8 7 8 8 8 8 8 10 11 9 9 9 10 12 9 9 10 9 8 8 9 9 7 4 4 5 6 6 6 6 8 18 21 21
5 5 5 6 6 8 13 14 14 6 6 7 8 8 9 8 14 17 11 10 11 10 13 16 16 15 16 16 12 7 6 7 7 5 4 4 4 3 4 6 11 20 20
5 6 6 6 6 7 11 13 13 6 7 8 8 8 12 14 17 18 11 10 11 11 12 13 13 13 11 13 14 10 8 8 6 5 5 5 4 3 3 3 5 9 12
Wind_Direction
212 209 198 188 190 192 191 193 196 202 206 211 206 202 205 212 214 198 178 183 188 198 209 214 217 218 221 223 224 219 217 218 218 215 212 212 215 217 220 228 245 294 346
208 206 205 200 197 198 198 197 199 204 208 209 211 209 208 207 211 197 177 189 196 201 209 217 222 224 224 226 226 223 221 219 218 218 216 215 218 220 219 226 227 236 261
212 210 207 208 204 199 197 196 201 204 210 211 213 216 212 212 214 205 184 186 197 207 212 218 224 227 229 229 228 226 222 220 220 219 219 219 221 222 221 221 226 236 243
217 209 212 215 208 198 195 195 197 200 207 210 213 221 219 216 221 217 200 191 192 202 213 219 223 226 229 230 230 229 223 218 218 218 219 219 220 221 220 223 229 234 238
226 212 213 214 202 197 201 203 201 197 201 206 213 220 225 226 222 223 218 205 199 199 201 214 220 223 225 227 230 230 226 221 218 218 217 216 218 221 221 220 224 227 232
250 223 214 214 208 202 203 202 203 200 200 199 215 225 225 227 228 228 225 215 211 205 202 204 211 221 224 225 227 228 228 225 219 217 216 216 217 218 218 217 218 219 221
296 258 241 222 218 211 209 207 203 205 210 190 197 236 246 238 235 229 226 221 214 208 206 205 203 206 216 222 223 225 226 225 222 219 217 217 217 218 216 214 214 215 217
318 293 261 238 222 216 215 212 208 208 211 190 185 188 228 238 239 232 225 225 223 210 207 206 203 203 205 208 218 221 224 225 223 222 219 218 218 218 217 214 211 211 212
355 351 321 286 250 223 222 218 209 211 216 208 196 184 193 218 221 227 223 223 222 219 215 207 206 207 205 204 207 216 220 222 223 223 221 220 218 217 216 214 214 215 214
9 5 347 335 304 271 248 237 225 223 218 223 220 221 220 200 197 224 229 220 218 221 220 214 210 209 208 207 208 211 215 217 221 224 224 221 220 219 219 218 219 218 214
13 13 2 355 342 325 300 272 259 245 233 229 225 223 235 243 233 216 233 227 223 222 222 220 215 212 211 209 209 211 211 214 221 226 228 225 223 222 222 221 220 219 217
14 13 7 4 355 344 322 290 262 251 249 247 241 230 222 223 220 220 229 229 228 228 224 223 221 217 212 211 213 213 212 214 220 226 229 228 226 225 225 223 222 221 220
10 3 4 4 2 347 338 320 297 275 258 259 254 246 240 238 234 227 232 235 235 236 226 226 223 218 215 212 215 214 216 217 220 225 230 231 228 224 224 225 224 223 222
7 360 2 1 358 355 353 339 307 291 282 269 269 261 254 250 245 240 237 237 243 238 229 229 221 214 213 214 217 213 218 220 223 226 230 232 228 222 221 227 228 224 222
8 8 10 9 4 1 357 343 339 332 310 288 283 278 264 262 255 247 245 241 240 243 240 227 219 213 211 216 217 215 219 224 225 228 230 231 225 219 221 223 223 220 215
14 13 16 13 11 10 5 1 356 352 348 335 316 301 295 291 277 269 260 255 248 247 249 232 225 217 209 219 221 216 220 224 227 228 229 227 223 218 218 217 216 214 210
20 19 18 17 16 14 9 8 6 2 357 351 347 336 321 314 302 291 277 270 264 259 260 259 236 223 211 216 221 221 224 223 227 228 227 226 222 218 217 215 214 210 205
21 17 15 17 17 13 9 8 6 3 358 352 347 347 340 332 320 308 295 278 270 269 269 272 256 235 228 222 222 222 223 224 224 226 225 224 222 220 219 215 210 207 204
16 14 14 14 12 10 9 4 4 360 354 350 348 344 339 339 334 327 317 306 294 285 275 278 275 255 242 230 233 236 230 226 226 225 223 222 221 220 220 215 209 206 203
13 9 9 7 6 5 7 2 360 352 347 346 346 343 340 339 333 328 319 313 309 301 293 285 277 269 251 237 225 230 236 225 227 223 226 225 223 221 218 214 210 205 203
8 5 5 2 359 360 1 360 353 345 341 339 337 336 333 331 327 325 319 318 311 301 297 289 282 271 256 238 231 224 237 238 237 218 219 221 219 218 213 213 209 204 203
2 2 360 356 356 354 352 352 349 339 336 334 331 328 325 323 324 325 321 317 313 301 294 287 284 277 268 258 246 243 236 236 246 211 210 224 212 223 219 210 209 204 204
354 353 350 350 346 343 347 346 345 340 329 323 319 320 322 326 328 321 321 321 316 309 296 283 281 280 275 264 251 244 239 237 244 215 219 235 217 227 222 216 209 206 206
343 339 336 335 333 335 340 340 341 339 324 320 317 315 315 317 320 321 318 316 309 308 301 291 275 274 278 274 254 248 247 252 263 228 208 237 225 231 224 212 213 209 208
325 321 319 322 322 323 333 335 338 324 317 315 315 317 317 311 316 320 318 312 308 305 306 300 292 286 287 285 276 261 246 242 257 250 215 218 229 238 231 222 213 210 208
309 312 312 311 310 310 326 333 335 322 318 316 313 312 317 317 317 318 314 308 304 302 301 302 297 291 285 282 276 256 237 237 244 252 218 200 213 203 227 228 210 200 204
Height
1504 1506 1507 1508 1510 1511 1513 1515 1517 1519 1521 1523 1525 1526 1528 1530 1532 1533 1534 1534 1535 1536 1537 1537 1538 1539 1539 1540 1540 1541 1541 1541 1542 1542 1542 1542 1542 1542 1541 1541 1541 1540 1540
1500 1502 1503 1504 1506 1507 1509 1511 1513 1515 1517 1519 1521 1523 1525 1527 1529 1530 1531 1531 1532 1533 1534 1535 1535 1536 1537 1537 1538 1538 1539 1539 1539 1540 1540 1540 1540 1540 1540 1539 1539 1539 1538
1496 1498 1499 1500 1502 1503 1505 1507 1509 1511 1513 1515 1517 1519 1521 1523 1525 1526 1527 1528 1528 1530 1530 1531 1532 1533 1534 1535 1535 1536 1536 1537 1537 1537 1538 1538 1538 1538 1538 1538 1537 1537 1537
1492 1493 1494 1496 1498 1499 1501 1503 1504 1506 1508 1510 1512 1514 1516 1518 1520 1522 1523 1524 1524 1525 1526 1528 1529 1530 1531 1531 1532 1533 1533 1534 1534 1535 1535 1535 1535 1536 1536 1536 1535 1535 1535
1488 1489 1490 1491 1493 1495 1497 1498 1500 1501 1503 1505 1507 1509 1511 1513 1515 1517 1518 1519 1520 1521 1522 1523 1524 1526 1527 1528 1529 1529 1530 1530 1531 1532 1532 1532 1533 1533 1533 1533 1533 1533 1532
1483 1484 1485 1487 1489 1490 1492 1493 1495 1496 1498 1500 1502 1504 1506 1508 1509 1510 1513 1514 1515 1516 1517 1518 1520 1521 1522 1523 1524 1525 1526 1526 1527 1528 1529 1529 1529 1529 1530 1530 1530 1530 1530
1478 1480 1481 1482 1484 1485 1487 1489 1490 1491 1493 1496 1498 1499 1501 1502 1503 1504 1506 1508 1509 1511 1512 1513 1514 1516 1517 1518 1520 1521 1522 1522 1523 1524 1525 1525 1526 1526 1526 1527 1527 1527 1527
1474 1475 1476 1477 1479 1481 1482 1484 1486 1487 1488 1491 1492 1494 1495 1497 1496 1498 1499 1501 1503 1504 1506 1507 1508 1510 1511 1513 1514 1516 1517 1518 1518 1519 1520 1521 1521 1522 1522 1523 1523 1523 1523
1470 1471 1472 1473 1474 1475 1477 1479 1481 1482 1483 1485 1487 1488 1489 1488 1490 1491 1492 1494 1495 1497 1499 1501 1502 1504 1505 1507 1508 1510 1511 1512 1513 1514 1515 1516 1517 1517 1518 1518 1519 1519 1519
1466 1466 1467 1468 1470 1471 1472 1474 1476 1477 1478 1479 1481 1482 1483 1484 1485 1484 1486 1487 1488 1490 1493 1494 1496 1497 1499 1500 1501 1503 1505 1506 1507 1508 1509 1510 1511 1512 1513 1513 1514 1514 1514
1462 1463 1463 1464 1465 1466 1467 1469 1470 1471 1473 1474 1475 1476 1477 1478 1479 1479 1479 1480 1481 1482 1485 1487 1489 1490 1492 1493 1495 1496 1498 1500 1501 1502 1503 1504 1505 1506 1507 1508 1509 1509 1510
1460 1459 1460 1460 1461 1462 1463 1464 1465 1466 1467 1468 1469 1469 1470 1471 1471 1473 1473 1473 1474 1475 1477 1479 1481 1483 1484 1486 1487 1489 1491 1493 1494 1495 1497 1498 1499 1500 1501 1502 1503 1504 1504
1457 1456 1457 1457 1457 1458 1458 1459 1460 1460 1461 1462 1463 1463 1464 1464 1466 1467 1467 1467 1467 1468 1469 1471 1473 1475 1476 1478 1480 1482 1483 1485 1487 1489 1490 1491 1492 1494 1495 1496 1497 1498 1499
1456 1455 1454 1454 1455 1455 1455 1455 1456 1456 1456 1457 1457 1457 1457 1457 1459 1459 1460 1462 1461 1460 1461 1462 1464 1466 1468 1470 1472 1474 1475 1478 1480 1481 1482 1484 1485 1486 1488 1489 1490 1491 1492
1455 1454 1453 1453 1452 1452 1452 1452 1451 1451 1451 1451 1451 1451 1450 1451 1452 1453 1454 1455 1456 1453 1452 1454 1455 1457 1460 1462 1464 1466 1467 1470 1472 1474 1475 1476 1477 1479 1480 1482 1483 1484 1486
1454 1453 1452 1451 1450 1450 1449 1449 1447 1447 1446 1446 1445 1445 1445 1445 1445 1446 1446 1447 1447 1447 1445 1445 1447 1449 1451 1453 1455 1457 1459 1461 1463 1465 1467 1468 1469 1471 1472 1474 1475 1477 1478
1453 1451 1450 1449 1448 1447 1446 1445 1444 1442 1442 1441 1440 1440 1439 1439 1439 1439 1439 1439 1440 1440 1438 1438 1440 1441 1442 1443 1445 1447 1450 1452 1454 1456 1458 1459 1461 1462 1464 1465 1467 1469 1470
1452 1451 1449 1448 1446 1445 1444 1442 1440 1439 1438 1437 1436 1435 1435 1434 1433 1433 1432 1431 1432 1432 1432 1430 1431 1432 1432 1434 1436 1437 1439 1441 1444 1446 1447 1449 1451 1453 1455 1457 1458 1460 1462
1451 1450 1448 1446 1445 1443 1442 1440 1438 1437 1435 1434 1432 1431 1430 1429 1428 1427 1426 1425 1425 1425 1425 1424 1422 1423 1423 1425 1426 1428 1430 1431 1433 1435 1438 1439 1442 1444 1445 1447 1449 1452 1454
1450 1448 1446 1445 1443 1442 1440 1438 1436 1434 1432 1431 1429 1428 1426 1425 1423 1422 1421 1420 1419 1418 1417 1416 1415 1415 1416 1417 1418 1419 1419 1421 1423 1425 1427 1430 1432 1434 1436 1438 1441 1443 1445
1449 1447 1445 1443 1442 1440 1437 1435 1433 1431 1429 1427 1426 1424 1423 1421 1419 1418 1416 1414 1413 1412 1411 1410 1409 1408 1409 1409 1410 1411 1411 1412 1413 1416 1418 1420 1422 1424 1426 1429 1431 1434 1437
1447 1445 1443 1442 1439 1437 1435 1433 1431 1428 1426 1424 1422 1420 1418 1416 1415 1413 1411 1410 1409 1407 1405 1404 1403 1403 1402 1402 1403 1403 1404 1404 1404 1408 1409 1411 1414 1415 1417 1420 1422 1425 1428
1446 1444 1442 1439 1437 1435 1432 1430 1428 1425 1423 1420 1418 1415 1413 1411 1410 1408 1406 1404 1403 1402 1401 1400 1398 1397 1396 1396 1396 1396 1396 1395 1396 1398 1401 1401 1404 1406 1409 1411 1414 1417 1419
1443 1441 1439 1436 1434 1432 1429 1427 1425 1422 1419 1417 1414 1412 1409 1406 1405 1403 1400 1398 1396 1395 1394 1393 1392 1390 1390 1390 1389 1388 1388 1388 1389 1390 1393 1393 1395 1397 1400 1402 1405 1408 1411
1441 1438 1436 1433 1431 1428 1426 1423 1421 1417 1415 1412 1410 1407 1405 1402 1400 1398 1395 1392 1389 1387 1386 1385 1384 1383 1382 1382 1382 1382 1381 1381 1379 1380 1383 1385 1386 1388 1391 1393 1396 1399 1402
1438 1435 1433 1430 1428 1425 1422 1420 1417 1414 1411 1408 1405 1402 1400 1397 1395 1393 1390 1387 1383 1381 1379 1377 1375 1374 1374 1373 1373 1373 1373 1373 1372 1372 1374 1377 1378 1381 1382 1384 1387 1390 1393